Weather History for Fryeburg, ME

Change the Weather History Date:

Saturday, September 22, 2012

  Actual Average Record
Temperature  
Mean Temperature 56 °F -  
Max Temperature 71 °F 67 °F 81 °F (2002)
Min Temperature 42 °F 41 °F 28 °F (1997)
Degree Days  
Heating Degree Days 8    
Growing Degree Days 6 (Base 50)    
Moisture  
Dew Point 52 °F    
Average Humidity 93    
Maximum Humidity 100    
Minimum Humidity 63    
Precipitation  
Precipitation 0.02 in - - ()
Sea Level Pressure  
Sea Level Pressure 29.97 in    
Wind  
Wind Speed 1 mph (SSE)    
Max Wind Speed 7 mph    
Max Gust Speed -    
Visibility 6 miles    
Events Fog , Rain    
Averages and records for this station are not official NWS values.
T = Trace of Precipitation, MM = Missing Value Source: NWS Daily Summary

Daily Weather History Graph

Daily Weather History Graph

Search for Another Location

Airport:

Trip Planner

Search our weather history database for the weather conditions in past years. The results will help you decide how hot, cold, wet, or windy it might be!

Date:

Astronomy

Sep. 22, 2012 Rise Set
Actual Time 6:31 AM EDT 6:40 PM EDT
Civil Twilight 6:02 AM EDT 7:09 PM EDT
Nautical Twilight 5:28 AM EDT 7:42 PM EDT
Astronomical Twilight 4:54 AM EDT 8:17 PM EDT
Moon 1:59 PM EDT (9/22) 11:29 PM EDT (9/22)
Length of Visible Light 13h 06m
Length of Day
12h 08m
Waxing Crescent, 48% of the Moon is Illuminated
Sep 22
Waxing Crescent
Sep 22
First Quarter
Sep 29
Full
Oct 8
Last Quarter
Oct 15
New

Hourly Weather History & Observations

Time (EDT) Temp. Dew Point Humidity Pressure Visibility Wind Dir Wind Speed Gust Speed Precip Events Conditions
12:05 AM 42.8 °F 42.8 °F 100% 30.09 in 0.8 mi Calm Calm - N/A   Mist
12:19 AM 42.8 °F 42.8 °F 100% 30.08 in 1.5 mi Calm Calm - N/A   Overcast
12:39 AM 42.8 °F 42.8 °F 100% 30.07 in 0.2 mi Calm Calm - N/A Fog Fog
12:54 AM 44.1 °F 43.0 °F 96% 30.08 in 0.2 mi Calm Calm - N/A Fog Fog
1:54 AM 46.0 °F 46.0 °F 100% 30.07 in 0.2 mi Calm Calm - 0.00 in Fog , Rain Light Rain
2:42 AM 46.4 °F 46.4 °F 100% 30.04 in 0.8 mi Calm Calm - 0.00 in   Overcast
2:49 AM 46.4 °F 46.4 °F 100% 30.05 in 1.5 mi Calm Calm - 0.00 in   Overcast
2:50 AM 46.9 °F 46.9 °F 100% 30.05 in 1.5 mi Calm Calm - 0.00 in   Overcast
2:57 AM 48.2 °F 46.4 °F 93% 30.04 in 0.8 mi Calm Calm - N/A   Mist
3:12 AM 48.2 °F 48.2 °F 100% 30.04 in 1.5 mi Calm Calm - N/A   Overcast
3:19 AM 48.2 °F 48.2 °F 100% 30.04 in 1.5 mi Calm Calm - N/A   Overcast
3:27 AM 48.2 °F 48.2 °F 100% 30.04 in 1.2 mi Calm Calm - N/A   Overcast
3:33 AM 48.2 °F 48.2 °F 100% 30.03 in 2.0 mi Calm Calm - N/A   Overcast
3:37 AM 48.2 °F 48.2 °F 100% 30.03 in 5.0 mi Calm Calm - N/A   Overcast
3:54 AM 48.0 °F 48.0 °F 100% 30.04 in 10.0 mi Calm Calm - N/A   Overcast
4:45 AM 48.2 °F 48.2 °F 100% 30.03 in 10.0 mi Calm Calm - N/A   Overcast
4:54 AM 48.9 °F 48.9 °F 100% 30.03 in 10.0 mi Calm Calm - N/A   Overcast
5:16 AM 48.2 °F 48.2 °F 100% 30.02 in 10.0 mi Calm Calm - N/A   Overcast
5:54 AM 50.0 °F 48.9 °F 96% 30.01 in 10.0 mi Calm Calm - 0.00 in   Overcast
6:54 AM 50.0 °F 50.0 °F 100% 30.00 in 10.0 mi Calm Calm - N/A   Overcast
7:25 AM 51.8 °F 50.0 °F 94% 29.99 in 10.0 mi Calm Calm - N/A   Overcast
7:54 AM 52.0 °F 51.1 °F 97% 30.00 in 3.0 mi Calm Calm - N/A   Overcast
8:10 AM 51.8 °F 51.8 °F 100% 29.99 in 1.8 mi Calm Calm - 0.00 in Rain Light Rain
8:20 AM 51.8 °F 51.8 °F 100% 29.99 in 1.8 mi Calm Calm - 0.01 in Rain Light Rain
8:24 AM 51.8 °F 51.8 °F 100% 29.99 in 2.5 mi Calm Calm - 0.01 in   Overcast
8:34 AM 53.6 °F 51.8 °F 94% 29.99 in 1.8 mi Calm Calm - 0.01 in Rain Light Rain
8:54 AM 54.0 °F 52.0 °F 93% 30.00 in 1.8 mi Calm Calm - 0.01 in   Overcast
9:00 AM 53.6 °F 51.8 °F 94% 29.99 in 2.0 mi Calm Calm - N/A   Overcast
9:05 AM 53.6 °F 51.8 °F 94% 29.99 in 2.5 mi Calm Calm - N/A   Overcast
9:36 AM 53.6 °F 53.6 °F 100% 29.99 in 1.5 mi NW 3.5 mph - 0.01 in Rain Light Rain
9:54 AM 55.0 °F 55.0 °F 100% 29.99 in 2.5 mi Calm Calm - 0.01 in Rain Light Rain
10:02 AM 55.4 °F 53.6 °F 94% 29.98 in 4.0 mi Calm Calm - 0.00 in   Overcast
10:25 AM 55.4 °F 53.6 °F 94% 29.97 in 9.0 mi West 3.5 mph - 0.00 in   Overcast
10:54 AM 57.0 °F 54.0 °F 89% 29.96 in 10.0 mi Calm Calm - 0.00 in   Overcast
11:54 AM 60.1 °F 55.0 °F 83% 29.94 in 10.0 mi Calm Calm - N/A   Overcast
12:50 PM 62.6 °F 57.2 °F 82% 29.91 in 10.0 mi Calm Calm - N/A   Overcast
12:54 PM 63.0 °F 57.0 °F 81% 29.92 in 10.0 mi Calm Calm - N/A   Overcast
1:08 PM 62.6 °F 57.2 °F 82% 29.91 in 10.0 mi Calm Calm - N/A   Overcast
2:31 PM 69.8 °F 59.0 °F 68% 29.87 in 10.0 mi SE 6.9 mph - N/A   Partly Cloudy
2:54 PM 69.1 °F 59.0 °F 70% 29.86 in 10.0 mi Variable 4.6 mph - N/A   Scattered Clouds
3:54 PM 71.1 °F 57.9 °F 63% 29.85 in 10.0 mi SSE 6.9 mph - N/A   Clear
4:54 PM 70.0 °F 59.0 °F 68% 29.85 in 10.0 mi Calm Calm - N/A   Clear
5:54 PM 68.0 °F 59.0 °F 73% 29.84 in 10.0 mi SSE 4.6 mph - N/A   Clear
6:54 PM 64.9 °F 60.1 °F 84% 29.84 in 10.0 mi SE 4.6 mph - N/A   Clear
7:54 PM 62.1 °F 59.0 °F 90% 29.84 in 10.0 mi SE 4.6 mph - N/A   Clear
8:54 PM 57.9 °F 57.0 °F 97% 29.85 in 10.0 mi Calm Calm - N/A   Clear
9:54 PM 61.0 °F 59.0 °F 93% 29.85 in 10.0 mi SSE 3.5 mph - N/A   Overcast
10:54 PM 61.0 °F 59.0 °F 93% 29.84 in 10.0 mi SE 3.5 mph - N/A   Overcast
11:54 PM 61.0 °F 59.0 °F 93% 29.82 in 10.0 mi ESE 4.6 mph - N/A   Overcast